When you browse on this site, cookies collect data to enhance your experience and personalize the content and advertising you see.
Visit our Privacy Policy to learn more. By continuing to use the site, you agree to this use of cookies and data.

Hourly Weather Tezontepec de Aldama

Today, 10 July, Friday

Time Temperature Precipitation Wind Pressure Humidity
00:00 +15°C° 0 mm 0 mps 601 mmHg 82%
01:00 +14°C° 0 mm 0 mps 600 mmHg 82%
02:00 +15°C° 0 mm 1 mps 600 mmHg 82%
03:00 +13°C° 0 mm 0 mps 600 mmHg 82%
04:00 +13°C° 0 mm 0 mps 599 mmHg 83%
05:00 +13°C° 0 mm 0 mps 599 mmHg 83%
06:00 +15°C° 0 mm 0 mps 600 mmHg 76%
07:00 +17°C° 0 mm 0 mps 601 mmHg 68%
08:00 +19°C° 0 mm 0 mps 602 mmHg 60%
09:00 +23°C° 0 mm 2 mps 603 mmHg 53%
10:00 +24°C° 0 mm 3 mps 604 mmHg 46%
11:00 +26°C° 0 mm 4 mps 604 mmHg 39%
12:00 +26°C° 0 mm 5 mps 604 mmHg 40%
13:00 +27°C° 0 mm 6 mps 603 mmHg 40%
14:00 +27°C° 0 mm 7 mps 603 mmHg 41%
15:00 +26°C° 0 mm 7 mps 602 mmHg 46%
16:00 +24°C° 0 mm 7 mps 602 mmHg 51%
17:00 +22°C° 0 mm 7 mps 601 mmHg 56%
18:00 +21°C° 0 mm 5 mps 601 mmHg 63%
19:00 +19°C° 0 mm 4 mps 601 mmHg 70%
20:00 +17°C° 0 mm 2 mps 601 mmHg 77%
21:00 +16°C° 0 mm 2 mps 601 mmHg 81%
22:00 +16°C° 0 mm 1 mps 601 mmHg 85%
23:00 +15°C° 0 mm 1 mps 601 mmHg 89%

Tomorrow, 11 July, Saturday

Time Temperature Precipitation Wind Pressure Humidity
00:00 +15°C° 0 mm 1 mps 600 mmHg 91%
01:00 +14°C° 0 mm 1 mps 600 mmHg 92%
02:00 +13°C° 0 mm 0 mps 599 mmHg 94%
03:00 +13°C° 0 mm 0 mps 599 mmHg 94%
04:00 +12°C° 0 mm 0 mps 599 mmHg 95%
05:00 +12°C° 0 mm 0 mps 599 mmHg 95%
06:00 +15°C° 0 mm 1 mps 600 mmHg 87%
07:00 +18°C° 0 mm 1 mps 601 mmHg 79%
08:00 +19°C° 0 mm 2 mps 602 mmHg 71%
09:00 +21°C° 0 mm 3 mps 602 mmHg 62%
10:00 +23°C° 0 mm 4 mps 603 mmHg 53%
11:00 +26°C° 0 mm 4 mps 604 mmHg 45%
12:00 +25°C° 0.2 mm 5 mps 603 mmHg 48%
13:00 +24°C° 0.2 mm 6 mps 602 mmHg 52%
14:00 +24°C° 0.2 mm 6 mps 602 mmHg 56%
15:00 +23°C° 1.8 mm 6 mps 601 mmHg 63%
16:00 +21°C° 1.8 mm 6 mps 601 mmHg 70%
17:00 +20°C° 1.8 mm 6 mps 600 mmHg 77%
18:00 +19°C° 0.7 mm 5 mps 600 mmHg 82%
19:00 +18°C° 0.7 mm 3 mps 600 mmHg 87%
20:00 +17°C° 0.7 mm 2 mps 601 mmHg 92%
21:00 +17°C° 0.4 mm 2 mps 601 mmHg 91%
22:00 +18°C° 0.4 mm 1 mps 601 mmHg 91%
23:00 +18°C° 0.4 mm 1 mps 601 mmHg 90%

Day after tomorrow, 12 July, Sunday

Time Temperature Precipitation Wind Pressure Humidity
00:00 +16°C° 0.1 mm 1 mps 601 mmHg 92%
01:00 +16°C° 0.1 mm 1 mps 600 mmHg 93%
02:00 +15°C° 0.1 mm 1 mps 600 mmHg 94%
03:00 +14°C° 0 mm 0 mps 600 mmHg 95%
04:00 +13°C° 0 mm 0 mps 599 mmHg 96%
05:00 +13°C° 0 mm 0 mps 599 mmHg 96%
06:00 +15°C° 0 mm 0 mps 600 mmHg 90%
07:00 +16°C° 0 mm 0 mps 601 mmHg 84%
08:00 +20°C° 0 mm 1 mps 602 mmHg 78%
09:00 +21°C° 0 mm 1 mps 602 mmHg 69%
10:00 +23°C° 0 mm 2 mps 602 mmHg 59%
11:00 +25°C° 0 mm 3 mps 603 mmHg 49%
12:00 +26°C° 0 mm 4 mps 603 mmHg 47%
13:00 +26°C° 0 mm 5 mps 602 mmHg 46%
14:00 +27°C° 0 mm 7 mps 602 mmHg 44%
15:00 +24°C° 0.2 mm 7 mps 601 mmHg 49%
16:00 +23°C° 0.2 mm 7 mps 601 mmHg 55%
17:00 +22°C° 0.2 mm 7 mps 600 mmHg 61%
18:00 +20°C° 0 mm 5 mps 600 mmHg 69%
19:00 +18°C° 0 mm 4 mps 600 mmHg 78%
20:00 +16°C° 0 mm 2 mps 600 mmHg 87%
21:00 +16°C° 0 mm 2 mps 600 mmHg 90%
22:00 +15°C° 0 mm 1 mps 600 mmHg 92%
23:00 +15°C° 0 mm 1 mps 600 mmHg 94%

13 July, Monday

Time Temperature Precipitation Wind Pressure Humidity
00:00 +13°C° 0 mm 0 mps 599 mmHg 95%
01:00 +13°C° 0 mm 0 mps 599 mmHg 95%
02:00 +13°C° 0 mm 0 mps 599 mmHg 95%
03:00 +13°C° 0 mm 0 mps 599 mmHg 95%
04:00 +12°C° 0 mm 0 mps 599 mmHg 95%
05:00 +12°C° 0 mm 0 mps 599 mmHg 95%
06:00 +14°C° 0 mm 0 mps 600 mmHg 86%
07:00 +16°C° 0 mm 0 mps 601 mmHg 77%
08:00 +18°C° 0 mm 0 mps 602 mmHg 68%
09:00 +22°C° 0 mm 1 mps 602 mmHg 58%
10:00 +24°C° 0 mm 2 mps 603 mmHg 48%
11:00 +25°C° 0 mm 3 mps 603 mmHg 38%
12:00 +26°C° 0 mm 4 mps 603 mmHg 37%
13:00 +27°C° 0 mm 5 mps 603 mmHg 36%
14:00 +27°C° 0 mm 5 mps 602 mmHg 35%
15:00 +26°C° 0.1 mm 6 mps 602 mmHg 41%
16:00 +24°C° 0.1 mm 6 mps 601 mmHg 48%
17:00 +23°C° 0.1 mm 6 mps 601 mmHg 55%
18:00 +21°C° 0 mm 5 mps 601 mmHg 62%
19:00 +19°C° 0 mm 3 mps 600 mmHg 70%
20:00 +17°C° 0 mm 2 mps 600 mmHg 78%
21:00 +18°C° 0 mm 1 mps 600 mmHg 82%
22:00 +16°C° 0 mm 1 mps 600 mmHg 86%
23:00 +14°C° 0 mm 0 mps 600 mmHg 90%

14 July, Tuesday

Time Temperature Precipitation Wind Pressure Humidity
00:00 +14°C° 0 mm 0 mps 599 mmHg 91%
01:00 +14°C° 0 mm 0 mps 599 mmHg 92%
02:00 +13°C° 0 mm 0 mps 599 mmHg 92%
03:00 +13°C° 0 mm 0 mps 599 mmHg 92%
04:00 +13°C° 0 mm 0 mps 598 mmHg 91%
05:00 +14°C° 0 mm 1 mps 598 mmHg 91%
06:00 +15°C° 0 mm 0 mps 600 mmHg 82%
07:00 +17°C° 0 mm 0 mps 601 mmHg 73%
08:00 +19°C° 0 mm 0 mps 602 mmHg 64%
09:00 +23°C° 0 mm 1 mps 602 mmHg 57%
10:00 +25°C° 0 mm 2 mps 603 mmHg 50%
11:00 +26°C° 0 mm 2 mps 603 mmHg 44%
12:00 +27°C° 0 mm 3 mps 603 mmHg 42%
13:00 +27°C° 0 mm 4 mps 602 mmHg 41%
14:00 +28°C° 0 mm 5 mps 602 mmHg 39%
15:00 +27°C° 0.2 mm 5 mps 602 mmHg 46%
16:00 +26°C° 0.2 mm 6 mps 601 mmHg 54%
17:00 +23°C° 0.2 mm 7 mps 600 mmHg 61%
18:00 +22°C° 0.6 mm 5 mps 600 mmHg 70%
19:00 +20°C° 0.6 mm 3 mps 600 mmHg 79%
20:00 +18°C° 0.6 mm 2 mps 600 mmHg 88%
21:00 +17°C° 0 mm 2 mps 600 mmHg 90%
22:00 +16°C° 0 mm 1 mps 600 mmHg 92%
23:00 +16°C° 0 mm 1 mps 600 mmHg 95%

15 July, Wednesday

Time Temperature Precipitation Wind Pressure Humidity
00:00 +15°C° 0 mm 1 mps 599 mmHg 95%
01:00 +14°C° 0 mm 0 mps 599 mmHg 96%
02:00 +14°C° 0 mm 0 mps 598 mmHg 96%
03:00 +13°C° 0 mm 0 mps 598 mmHg 96%
04:00 +13°C° 0 mm 0 mps 598 mmHg 96%
05:00 +13°C° 0 mm 0 mps 598 mmHg 96%
06:00 +15°C° 0 mm 0 mps 599 mmHg 88%
07:00 +17°C° 0 mm 0 mps 600 mmHg 80%
08:00 +19°C° 0 mm 0 mps 602 mmHg 72%
09:00 +23°C° 0 mm 1 mps 602 mmHg 61%
10:00 +25°C° 0 mm 2 mps 602 mmHg 50%
11:00 +26°C° 0 mm 3 mps 603 mmHg 39%
12:00 +27°C° 0 mm 4 mps 602 mmHg 38%
13:00 +28°C° 0 mm 5 mps 602 mmHg 38%
14:00 +28°C° 0 mm 6 mps 602 mmHg 37%
15:00 +27°C° 0 mm 6 mps 601 mmHg 44%
16:00 +24°C° 0 mm 6 mps 601 mmHg 50%
17:00 +23°C° 0 mm 6 mps 600 mmHg 57%
18:00 +21°C° 0.1 mm 5 mps 600 mmHg 66%
19:00 +19°C° 0.1 mm 3 mps 600 mmHg 74%
20:00 +17°C° 0.1 mm 2 mps 600 mmHg 83%
21:00 +16°C° 0 mm 1 mps 600 mmHg 86%
22:00 +16°C° 0 mm 1 mps 600 mmHg 89%
23:00 +15°C° 0 mm 1 mps 600 mmHg 92%
Show more